Weather History for KESN - February, 2013

Change the Weather History Date:

Friday, February 1, 2013

  Actual Average Record
Temperature  
Mean Temperature 26 °F -  
Max Temperature 32 °F 45 °F 65 °F (1951)
Min Temperature 21 °F 25 °F 5 °F (1965)
Degree Days  
Heating Degree Days 38    
Moisture  
Dew Point 18 °F    
Average Humidity 67    
Maximum Humidity 100    
Minimum Humidity 47    
Precipitation  
Precipitation 0.01 in - - ()
Sea Level Pressure  
Sea Level Pressure 30.06 in    
Wind  
Wind Speed 6 mph (WNW)    
Max Wind Speed 25 mph    
Max Gust Speed 39 mph    
Visibility 9 miles    
Events Snow    
Averages and records for this station are not official NWS values.
T = Trace of Precipitation, MM = Missing Value Source: NWS Daily Summary

Daily Weather History Graph

Daily Weather History Graph

Search for Another Location

Airport or City:

Trip Planner

Search our weather history database for the weather conditions in past years. The results will help you decide how hot, cold, wet, or windy it might be!

Date:

Astronomy

Feb. 01, 2013 Rise Set
Actual Time 7:10 AM EST 5:26 PM EST
Civil Twilight 6:42 AM EST 5:54 PM EST
Nautical Twilight 6:10 AM EST 6:26 PM EST
Astronomical Twilight 5:38 AM EST 6:57 PM EST
Moon 11:26 PM EST (2/1) 9:46 AM EST (2/1)
Length of Visible Light 11h 12m
Length of Day
10h 16m
Waning Gibbous, 70% of the Moon is Illuminated
Feb 1
Waning Gibbous
Feb 3
Last Quarter
Feb 10
New
Feb 17
First Quarter
Feb 25
Full

Hourly Weather History & Observations

Time (EST) Temp. Windchill Dew Point Humidity Pressure Visibility Wind Dir Wind Speed Gust Speed Precip Events Conditions
12:21 AM 31.6 °F 27.0 °F 16.5 °F 54% 29.97 in 10.0 mi WNW 4.6 mph - N/A   Scattered Clouds
12:42 AM 30.6 °F - 18.5 °F 61% 29.97 in 10.0 mi Calm Calm - N/A   Scattered Clouds
1:03 AM 29.3 °F 25.6 °F 18.9 °F 65% 29.95 in 10.0 mi SSW 3.5 mph - N/A   Scattered Clouds
1:24 AM 29.3 °F 25.6 °F 18.5 °F 64% 29.94 in 10.0 mi South 3.5 mph - N/A   Clear
1:46 AM 27.3 °F 23.4 °F 19.9 °F 74% 29.95 in 10.0 mi South 3.5 mph - N/A   Clear
2:07 AM 27.7 °F - 19.2 °F 71% 29.95 in 10.0 mi Calm Calm - N/A   Clear
2:28 AM 28.4 °F - 21.0 °F 74% 29.95 in 10.0 mi Calm Calm - N/A   Scattered Clouds
2:50 AM 29.1 °F 24.1 °F 21.0 °F 72% 29.94 in 10.0 mi SSE 4.6 mph - N/A   Scattered Clouds
3:11 AM 29.3 °F 23.2 °F 21.0 °F 71% 29.92 in 10.0 mi SSE 5.8 mph - N/A   Clear
3:32 AM 29.8 °F 24.9 °F 21.0 °F 70% 29.92 in 10.0 mi SSE 4.6 mph - N/A   Clear
3:54 AM 30.2 °F 24.3 °F 21.6 °F 70% 29.90 in 10.0 mi SSE 5.8 mph - N/A   Clear
4:15 AM 30.9 °F 25.2 °F 21.9 °F 69% 29.89 in 10.0 mi SSE 5.8 mph - N/A   Clear
4:36 AM 31.8 °F 27.3 °F 22.8 °F 69% 29.88 in 10.0 mi SSE 4.6 mph - N/A   Scattered Clouds
4:58 AM 31.8 °F - 23.7 °F 72% 29.87 in 10.0 mi Calm Calm - N/A   Scattered Clouds
5:19 AM 32.2 °F - 23.9 °F 72% 29.87 in 10.0 mi Calm Calm - N/A   Mostly Cloudy
5:40 AM 32.4 °F - 24.8 °F 74% 29.86 in 7.0 mi Calm Calm - N/A Snow Light Snow
5:48 AM 32.0 °F - 26.6 °F 80% 29.86 in 7.0 mi Calm Calm - N/A Snow Light Snow
6:02 AM 32.2 °F - 26.4 °F 79% 29.86 in 10.0 mi Calm Calm - N/A   Overcast
6:23 AM 31.8 °F - 28.2 °F 87% 29.88 in 3.0 mi Calm Calm - N/A Snow Light Snow
6:41 AM 30.2 °F - 29.8 °F 99% 29.89 in 1.0 mi Calm Calm - 0.01 in Snow Snow
6:48 AM 30.2 °F - 30.2 °F 100% 29.89 in 0.5 mi Calm Calm - N/A Snow Heavy Snow
7:48 AM 30.2 °F 24.3 °F 30.2 °F 100% 29.91 in 0.8 mi WNW 5.8 mph - N/A Snow Snow
8:47 AM 28.4 °F 13.8 °F 28.4 °F 100% 29.98 in 0.8 mi NNW 25.3 mph 39.1 mph N/A Snow Light Snow
9:01 AM 28.4 °F 17.0 °F 28.4 °F 100% 29.98 in 7.0 mi NNW 15.0 mph 32.2 mph N/A   Overcast
9:45 AM 30.2 °F 18.5 °F 21.2 °F 69% 30.01 in 7.0 mi NW 17.3 mph 27.6 mph N/A   Mostly Cloudy
10:48 AM 30.2 °F 17.8 °F 14.0 °F 51% 30.06 in 10.0 mi NW 19.6 mph 36.8 mph N/A   Mostly Cloudy
11:47 AM 28.4 °F 16.2 °F 12.2 °F 51% 30.10 in 10.0 mi NW 17.3 mph 28.8 mph N/A   Mostly Cloudy
12:45 PM 30.2 °F 18.1 °F 12.2 °F 47% 30.12 in 10.0 mi NW 18.4 mph 25.3 mph N/A   Mostly Cloudy
1:53 PM 28.4 °F 15.8 °F 10.4 °F 47% 30.14 in 10.0 mi NW 18.4 mph 28.8 mph N/A   Scattered Clouds
2:46 PM 28.4 °F 20.4 °F 10.4 °F 47% 30.16 in 10.0 mi NW 8.1 mph 28.8 mph N/A   Scattered Clouds
3:52 PM 28.4 °F 20.4 °F 10.4 °F 47% 30.20 in 10.0 mi NW 8.1 mph 24.2 mph N/A   Mostly Cloudy
4:51 PM 26.6 °F 15.2 °F 8.6 °F 47% 30.24 in 10.0 mi NW 13.8 mph 25.3 mph N/A   Mostly Cloudy
5:55 PM 24.8 °F 11.5 °F 8.6 °F 50% 30.28 in 10.0 mi NW 17.3 mph 26.5 mph N/A   Mostly Cloudy
6:50 PM 24.8 °F 15.3 °F 8.6 °F 50% 30.31 in 10.0 mi NW 9.2 mph - N/A   Scattered Clouds
7:50 PM 24.8 °F 11.5 °F 8.6 °F 50% 30.33 in 10.0 mi NW 17.3 mph 24.2 mph N/A   Clear
8:50 PM 23.0 °F 9.2 °F 8.6 °F 54% 30.35 in 10.0 mi NW 17.3 mph 25.3 mph N/A   Clear
9:59 PM 22.5 °F 8.9 °F 8.4 °F 55% 30.38 in 10.0 mi NW 16.1 mph 21.9 mph N/A   Clear
10:20 PM 22.3 °F 10.2 °F 8.4 °F 55% 30.38 in 10.0 mi NW 12.7 mph 19.6 mph N/A   Clear
10:41 PM 21.9 °F 9.2 °F 8.2 °F 56% 30.39 in 10.0 mi NW 13.8 mph 17.3 mph N/A   Clear
11:03 PM 21.7 °F 8.5 °F 8.6 °F 57% 30.39 in 10.0 mi NW 15.0 mph 25.3 mph N/A   Clear
11:24 PM 21.4 °F 9.7 °F 8.8 °F 58% 30.40 in 10.0 mi NW 11.5 mph - N/A   Clear
11:45 PM 21.4 °F 9.7 °F 8.4 °F 57% 30.40 in 10.0 mi NW 11.5 mph - N/A   Clear